Weather History for Barking Sands, HI

Change the Weather History Date:

Saturday, January 5, 2013

  Actual Average Record
Temperature  
Mean Temperature 73 °F -  
Max Temperature 80 °F 80 °F 85 °F (1977)
Min Temperature 66 °F 62 °F 58 °F (1950)
Cooling Degree Days 8    
Growing Degree Days 23 (Base 50)    
Moisture  
Dew Point 67 °F    
Average Humidity 77    
Maximum Humidity 97    
Minimum Humidity 64    
Precipitation  
Precipitation 0.00 in - - ()
Sea Level Pressure  
Sea Level Pressure 30.12 in    
Wind  
Wind Speed 3 mph (West)    
Max Wind Speed 10 mph    
Max Gust Speed -    
Visibility 10 miles    
Events Rain    
Averages and records for this station are not official NWS values.
T = Trace of Precipitation, MM = Missing Value Source: NWS Daily Summary

Daily Weather History Graph

Daily Weather History Graph

Search for Another Location

Airport:

Trip Planner

Search our weather history database for the weather conditions in past years. The results will help you decide how hot, cold, wet, or windy it might be!

Date:

Astronomy

Jan. 05, 2013 Rise Set
Actual Time 7:19 AM HST 6:10 PM HST
Civil Twilight 6:55 AM HST 6:34 PM HST
Nautical Twilight 6:27 AM HST 7:02 PM HST
Astronomical Twilight 6:00 AM HST 7:29 PM HST
Moon 1:01 AM HST (1/5) 12:47 PM HST (1/5)
Length of Visible Light 11h 39m
Length of Day
10h 50m
Last Quarter, 42% of the Moon is Illuminated
Jan 5
Last Quarter
Jan 11
New
Jan 18
First Quarter
Jan 26
Full
Feb 3
Last Quarter

Hourly Weather History & Observations

Time (HST) Temp. Heat Index Dew Point Humidity Pressure Visibility Wind Dir Wind Speed Gust Speed Precip Events Conditions
12:56 AM 71.1 °F - 64.0 °F 78% 30.12 in 10.0 mi Calm Calm - N/A   Partly Cloudy
1:56 AM 69.1 °F - 66.0 °F 90% 30.11 in 10.0 mi South 3.5 mph - N/A   Clear
2:56 AM 70.0 °F - 66.0 °F 87% 30.10 in 10.0 mi WNW 3.5 mph - N/A   Clear
3:56 AM 71.1 °F - 66.9 °F 87% 30.10 in 10.0 mi SSE 3.5 mph - N/A   Clear
4:56 AM 68.0 °F - 61.0 °F 78% 30.10 in 10.0 mi Calm Calm - N/A   Clear
5:56 AM 70.0 °F - 63.0 °F 78% 30.10 in 10.0 mi SE 4.6 mph - N/A   Clear
6:56 AM 69.1 °F - 63.0 °F 81% 30.10 in 10.0 mi Calm Calm - N/A   Clear
7:56 AM 66.9 °F - 66.0 °F 97% 30.12 in 10.0 mi Calm Calm - N/A   Partly Cloudy
8:56 AM 75.9 °F - 68.0 °F 76% 30.15 in 10.0 mi NE 8.1 mph - N/A   Clear
9:56 AM 78.1 °F - 66.9 °F 68% 30.17 in 10.0 mi NW 3.5 mph - N/A   Mostly Cloudy
10:56 AM 78.1 °F - 70.0 °F 76% 30.16 in 10.0 mi NNW 6.9 mph - N/A   Mostly Cloudy
11:56 AM 80.1 °F 82.7 °F 68.0 °F 67% 30.13 in 10.0 mi West 6.9 mph - N/A   Clear
12:56 PM 80.1 °F 82.3 °F 66.9 °F 64% 30.12 in 10.0 mi NW 8.1 mph - N/A   Mostly Cloudy
1:56 PM 77.0 °F - 73.9 °F 90% 30.10 in 10.0 mi Calm Calm - 0.00 in Rain Light Rain
2:56 PM 79.0 °F - 70.0 °F 74% 30.07 in 10.0 mi NW 9.2 mph - 0.00 in   Scattered Clouds
3:56 PM 80.1 °F 82.7 °F 68.0 °F 67% 30.06 in 10.0 mi West 5.8 mph - N/A   Clear
4:56 PM 79.0 °F - 71.1 °F 77% 30.07 in 10.0 mi Calm Calm - N/A   Partly Cloudy
5:56 PM 78.1 °F - 69.1 °F 74% 30.08 in 10.0 mi Variable 3.5 mph - N/A   Clear
6:56 PM 77.0 °F - 64.9 °F 66% 30.10 in 10.0 mi ESE 10.4 mph - N/A   Clear
7:56 PM 75.9 °F - 68.0 °F 76% 30.12 in 10.0 mi ESE 6.9 mph - N/A   Clear
8:56 PM 75.0 °F - 66.0 °F 73% 30.14 in 10.0 mi SE 5.8 mph - N/A   Clear
9:56 PM 73.9 °F - 64.9 °F 73% 30.15 in 10.0 mi Variable 3.5 mph - N/A   Clear
10:56 PM 73.0 °F - 66.9 °F 81% 30.16 in 10.0 mi Calm Calm - N/A   Clear
11:56 PM 73.0 °F - 64.0 °F 73% 30.15 in 10.0 mi Calm Calm - N/A   Clear